[[{"header":{"parameterUnit":"m.s-1","parameterCategory":1,"la1":30.2991,"la2":30.254,"lo1":-89.0895,"lo2":-89.0444,"dy":0.0017,"dx":0.0017,"nx":28,"ny":28,"refTime":"2024-05-28T21:00:00:Z","depth":0,"parameterNumber":2,"parameterNumberName":"U-component_of_WINDS"},"data":[0,0,0,0,0,0,0,0,0,0,0,0,0,0,0,0,0,0,0,0,0,0,0,0,0,0,0,0,0,0,0,0,0,0,0,0,0,0,0,0,0,0,0,0,0,0,0,0,0,0,0,0,0,0,0,0,0,0,-0.3784,-0.3784,0,-0.3771,-0.3771,-0.3771,-0.3762,-0.3762,-0.3762,-0.3762,-0.3748,-0.3747,-0.3747,0,0,0,0,0,0,0,0,0,0,0,0,0,-0.3802,-0.3802,-0.3784,-0.3784,-0.3784,-0.3771,-0.3771,-0.377,-0.3762,-0.3762,-0.3762,-0.3762,-0.3748,-0.3747,-0.3747,0,0,0,0,0,0,0,0,0,0,0,0,0,-0.3792,-0.3802,-0.3784,-0.3778,-0.3778,-0.3771,-0.3771,-0.377,-0.3762,-0.3762,-0.3762,-0.3762,-0.3748,-0.3747,-0.3747,-0.3745,0,0,-0.3745,-0.3745,0,0,0,0,0,0,0,0,-0.3793,-0.3791,-0.3779,-0.3779,-0.3778,-0.3768,-0.3772,-0.3762,-0.3762,-0.3768,-0.3762,-0.3762,-0.3754,-0.3753,-0.3751,-0.3744,-0.3743,-0.3745,-0.3745,-0.3744,-0.3744,0,0,0,0,0,0,0,-0.3793,-0.3792,-0.3779,-0.3779,-0.3778,-0.3776,-0.3775,-0.377,-0.3762,-0.3768,-0.3767,-0.3766,-0.3754,-0.3751,-0.375,-0.3743,-0.3745,-0.3745,-0.3744,-0.3744,-0.3734,-0.3734,0,0,0,0,0,0,-0.3795,-0.3793,-0.3779,-0.3778,-0.3785,-0.3776,-0.3774,-0.3771,-0.3762,-0.376,-0.3766,-0.3765,-0.3752,-0.3751,-0.375,-0.3747,-0.3744,-0.3744,-0.3744,-0.3734,-0.3734,-0.3734,0,0,0,0,0,0,-0.3796,-0.3794,-0.378,-0.3785,-0.3783,-0.3776,-0.3773,-0.3771,-0.3769,-0.376,-0.3759,-0.3765,-0.3752,-0.3751,-0.3746,-0.3746,-0.3744,-0.3743,-0.3734,-0.3734,-0.3734,-0.3741,0,0,0,0,0,0,-0.3796,-0.3794,-0.3793,-0.3785,-0.3783,-0.3776,-0.3773,-0.3771,-0.3768,-0.3767,-0.3759,-0.3757,-0.3752,-0.3747,-0.3746,-0.3745,-0.3743,-0.3734,-0.3734,-0.3734,-0.374,-0.3741,-0.3742,0,0,0,0,0,-0.3797,-0.3795,-0.3793,-0.3792,-0.3782,-0.3776,-0.3775,-0.3769,-0.3768,-0.3767,-0.3762,-0.3758,-0.3747,-0.3747,-0.3745,-0.3745,-0.3734,-0.3734,-0.3734,-0.374,-0.3741,-0.3742,0,0,0,0,0,0,-0.3803,-0.3794,-0.3792,-0.3788,-0.3783,-0.3775,-0.3774,-0.377,-0.3765,-0.3765,-0.3758,-0.3756,-0.3752,-0.3748,-0.3748,-0.3742,-0.374,-0.374,-0.3745,-0.3746,-0.3746,-0.3747,-0.3742,0,0,0,0,0,-0.3804,-0.3801,-0.3793,-0.379,-0.3788,-0.3781,-0.3779,-0.3775,-0.3769,-0.3767,-0.3761,-0.3756,-0.3751,-0.3748,-0.3744,-0.374,-0.3738,-0.3739,-0.374,-0.374,-0.374,-0.3738,-0.3739,-0.3734,-0.3734,-0.3734,0,0,-0.3806,-0.3801,-0.3799,-0.3791,-0.3787,-0.3784,-0.378,-0.3776,-0.3773,-0.3766,-0.3762,-0.3758,-0.3751,-0.3747,-0.3745,-0.3744,-0.3741,-0.374,-0.3741,-0.374,-0.3738,-0.3739,-0.3739,-0.3735,-0.3735,-0.3735,0,0,-0.3807,-0.3803,-0.3801,-0.3797,-0.379,-0.3786,-0.3786,-0.3778,-0.3775,-0.3771,-0.3766,-0.3763,-0.3755,-0.375,-0.3747,-0.3748,-0.3744,-0.3747,-0.3749,-0.3748,-0.3748,-0.3748,-0.3749,-0.3749,-0.3747,-0.3747,-0.3747,0,-0.381,-0.3805,-0.38,-0.3796,-0.3793,-0.3788,-0.3785,-0.3781,-0.3774,-0.3772,-0.377,-0.3761,-0.3756,-0.3751,-0.3752,-0.3749,-0.3748,-0.3747,-0.3748,-0.3749,-0.3749,-0.3749,-0.3749,-0.3747,-0.3747,-0.3747,-0.3747,0,-0.3809,-0.3805,-0.3804,-0.3797,-0.3794,-0.3791,-0.3785,-0.3783,-0.378,-0.3775,-0.3771,-0.3765,-0.376,-0.3758,-0.3755,-0.3753,-0.3752,-0.375,-0.3747,-0.375,-0.375,-0.375,-0.3748,-0.3747,-0.3747,-0.3747,0,0,-0.3813,-0.3804,-0.3804,-0.3801,-0.3794,-0.3791,-0.3788,-0.3783,-0.3781,-0.3776,-0.3773,-0.3767,-0.3765,-0.3762,-0.3758,-0.3756,-0.3758,-0.3754,-0.3754,-0.3755,-0.3755,-0.3757,-0.3757,-0.3755,-0.3755,-0.3755,-0.3756,0,-0.3813,-0.3808,-0.3803,-0.3799,-0.3796,-0.3791,-0.3789,-0.3784,-0.378,-0.3777,-0.3773,-0.3769,-0.3766,-0.3764,-0.3762,-0.3758,-0.3757,-0.3758,-0.3752,-0.3752,-0.3754,-0.3757,-0.3759,-0.376,-0.3756,-0.3756,-0.3756,0,-0.3813,-0.3809,-0.3805,-0.3799,-0.3797,-0.3795,-0.379,-0.3787,-0.3782,-0.3779,-0.3776,-0.3772,-0.3768,-0.3767,-0.3762,-0.3762,-0.376,-0.3757,-0.3757,-0.3756,-0.3754,-0.3756,-0.376,-0.376,-0.3756,-0.3756,-0.3756,0,-0.3816,-0.381,-0.3806,-0.3804,-0.3797,-0.3796,-0.3793,-0.3788,-0.3785,-0.3781,-0.3779,-0.3774,-0.3772,-0.3768,-0.3763,-0.3763,-0.3759,-0.3757,-0.3757,-0.3757,-0.3756,-0.3756,-0.3759,-0.3755,-0.3755,-0.3755,-0.3755,0,-0.3817,-0.3814,-0.3808,-0.3806,-0.3803,-0.3798,-0.3796,-0.3792,-0.3788,-0.3785,-0.3781,-0.3778,-0.3772,-0.3769,-0.3765,-0.3762,-0.3761,-0.3758,-0.3757,-0.3758,-0.3759,-0.3756,-0.3756,-0.3755,-0.3755,-0.3755,-0.3755,0,-0.382,-0.3816,-0.3812,-0.3806,-0.3804,-0.3802,-0.3797,-0.3795,-0.3791,-0.3788,-0.3787,-0.3781,-0.3777,-0.3772,-0.3766,-0.3764,-0.3761,-0.376,-0.3763,-0.3762,-0.3762,-0.3762,-0.3764,-0.3764,-0.376,-0.376,-0.376,0,-0.382,-0.3819,-0.3812,-0.381,-0.3808,-0.3804,-0.3802,-0.3797,-0.3795,-0.3789,-0.3788,-0.3784,-0.378,-0.3774,-0.3769,-0.3765,-0.3763,-0.3764,-0.3762,-0.3764,-0.3763,-0.3763,-0.3763,-0.3764,-0.3764,-0.3764,-0.3764,0,-0.3822,-0.382,-0.3816,-0.3812,-0.381,-0.3806,-0.3802,-0.3801,-0.3795,-0.3793,-0.3789,-0.3786,-0.3781,-0.3777,-0.3772,-0.3769,-0.3766,-0.3765,-0.3765,-0.3766,-0.3768,-0.3766,-0.3763,-0.3765,-0.3765,-0.3765,-0.3765,-0.3765,-0.3823,-0.3822,-0.3817,-0.3814,-0.381,-0.3807,-0.3805,-0.3802,-0.3798,-0.3794,-0.3791,-0.3787,-0.3783,-0.3776,-0.3773,-0.377,-0.3769,-0.3769,-0.3769,-0.3768,-0.3769,-0.3769,-0.377,-0.377,-0.377,-0.377,-0.3769,0,-0.3824,-0.3821,-0.3818,-0.3813,-0.3811,-0.3809,-0.3805,-0.3802,-0.3799,-0.3795,-0.3792,-0.3788,-0.3784,-0.3779,-0.3775,-0.3774,-0.3772,-0.3773,-0.3773,-0.3772,-0.377,-0.3771,-0.3774,-0.3774,-0.3774,-0.3774,-0.3774,-0.3774,-0.3825,-0.3821,-0.3819,-0.3814,-0.3812,-0.3808,-0.3806,-0.3803,-0.38,-0.3795,-0.3792,-0.379,-0.3786,-0.3781,-0.3778,-0.3777,-0.3775,-0.3776,-0.3774,-0.3773,-0.3772,-0.3772,-0.3772,-0.3776,-0.3776,-0.3776,-0.3776,-0.3776]},{"header":{"parameterUnit":"m.s-1","parameterCategory":1,"la1":30.2991,"la2":30.254,"lo1":-89.0895,"lo2":-89.0444,"dy":0.0017,"dx":0.0017,"nx":28,"ny":28,"refTime":"2024-05-28T21:00:00:Z","depth":0,"parameterNumber":3,"parameterNumberName":"V-component_of_WINDS"},"data":[0,0,0,0,0,0,0,0,0,0,0,0,0,0,0,0,0,0,0,0,0,0,0,0,0,0,0,0,0,0,0,0,0,0,0,0,0,0,0,0,0,0,0,0,0,0,0,0,0,0,0,0,0,0,0,0,0,0,3.0639,3.0639,0,3.0616,3.0615,3.0615,3.0662,3.0664,3.0665,3.0667,3.0639,3.0637,3.0635,0,0,0,0,0,0,0,0,0,0,0,0,0,3.072,3.0718,3.0639,3.0639,3.0638,3.0616,3.0615,3.0615,3.0662,3.0664,3.0666,3.0667,3.064,3.0638,3.0635,0,0,0,0,0,0,0,0,0,0,0,0,0,3.0689,3.0717,3.0639,3.0659,3.0661,3.0616,3.0615,3.0615,3.0661,3.0664,3.0666,3.0668,3.0641,3.0638,3.0635,3.0568,0,0,3.0625,3.0623,0,0,0,0,0,0,0,0,3.0691,3.0686,3.0656,3.0658,3.0659,3.0644,3.0634,3.0599,3.0661,3.0661,3.0667,3.0669,3.0639,3.0636,3.0626,3.0567,3.0566,3.0624,3.0622,3.0621,3.062,0,0,0,0,0,0,0,3.0693,3.0687,3.063,3.0656,3.0658,3.0668,3.0666,3.0628,3.0637,3.0661,3.0664,3.0661,3.064,3.0629,3.0626,3.0565,3.0624,3.0622,3.062,3.0618,3.0449,3.0447,0,0,0,0,0,0,3.0693,3.0689,3.063,3.0629,3.0681,3.0665,3.0663,3.0647,3.0638,3.0639,3.0659,3.0664,3.0634,3.063,3.0625,3.0547,3.0621,3.0618,3.0616,3.0452,3.0449,3.0446,0,0,0,0,0,0,3.0695,3.0687,3.0631,3.066,3.0653,3.0661,3.0642,3.0645,3.0634,3.0636,3.0638,3.0647,3.0635,3.063,3.0582,3.0546,3.0617,3.0614,3.0455,3.0451,3.0447,3.0389,0,0,0,0,0,0,3.0697,3.0688,3.0663,3.0659,3.0652,3.0589,3.064,3.0643,3.0629,3.0634,3.0625,3.0626,3.0637,3.0587,3.0579,3.0543,3.0611,3.0458,3.0453,3.0449,3.0394,3.0384,3.0375,0,0,0,0,0,3.07,3.0647,3.0662,3.0655,3.0622,3.0587,3.0583,3.0598,3.0626,3.0601,3.0602,3.0626,3.0552,3.0581,3.0573,3.0536,3.046,3.0455,3.0449,3.0398,3.0386,3.0375,0,0,0,0,0,0,3.0646,3.0647,3.0663,3.0608,3.0597,3.0595,3.0564,3.0584,3.0564,3.0569,3.0588,3.0585,3.0533,3.053,3.0563,3.0471,3.0511,3.0503,3.0475,3.0463,3.0453,3.0455,3.0608,0,0,0,0,0,3.0628,3.0601,3.0603,3.0554,3.0548,3.0557,3.0542,3.0555,3.0544,3.0539,3.0537,3.0524,3.0498,3.048,3.0456,3.0394,3.0392,3.0364,3.0354,3.0346,3.0339,3.0306,3.0293,3.0427,3.0427,3.0428,0,0,3.059,3.0587,3.0569,3.0543,3.0536,3.0507,3.0552,3.0519,3.0497,3.0534,3.0489,3.0486,3.0473,3.0418,3.0393,3.0413,3.0302,3.0339,3.0333,3.033,3.0298,3.0286,3.0274,3.0423,3.0424,3.0425,0,0,3.0506,3.0501,3.046,3.0452,3.0442,3.0448,3.0438,3.0433,3.0433,3.0388,3.0415,3.0388,3.0343,3.0333,3.0321,3.0233,3.0254,3.0225,3.0174,3.014,3.013,3.0121,3.0089,3.0077,3.0218,3.0217,3.0217,0,3.0459,3.0418,3.0436,3.0401,3.0389,3.0421,3.0379,3.037,3.0351,3.0341,3.0364,3.0308,3.0302,3.0244,3.0222,3.0212,3.0201,3.0226,3.013,3.0121,3.0113,3.0082,3.007,3.0214,3.0214,3.0215,3.0215,0,3.0361,3.0331,3.0299,3.0282,3.0266,3.0227,3.0238,3.0219,3.0233,3.0237,3.019,3.0184,3.0159,3.0146,3.0159,3.009,3.0103,3.0127,3.0168,3.0096,3.0068,3.0056,3.0209,3.021,3.0211,3.0212,0,0,3.0242,3.0236,3.0224,3.0216,3.0207,3.0184,3.0146,3.0123,3.0106,3.0092,3.006,3.0021,3.0044,3.0031,3.0043,3.0014,2.9944,3.0042,3.0042,3.0024,2.9867,2.9848,2.9835,2.9958,2.9956,2.9954,2.9868,0,3.0159,3.0096,3.0111,3.0048,3.0021,3.0051,3.0018,3.0008,3.001,2.9986,2.9988,2.996,2.9992,2.9985,2.9958,2.9958,2.9912,2.9964,2.9928,2.9926,2.993,2.982,2.98,2.972,2.9857,2.9855,2.9854,0,3.0054,3.0037,2.9971,2.9966,2.9955,2.9926,2.9906,2.9882,2.9871,2.9875,2.986,2.9877,2.9839,2.988,2.9827,2.9862,2.9848,2.9846,2.9843,2.984,2.9886,2.9814,2.9695,2.9682,2.9837,2.9838,2.984,0,2.9973,2.9934,2.989,2.9883,2.9876,2.9854,2.985,2.9841,2.9826,2.9808,2.9798,2.9775,2.9762,2.9744,2.9754,2.9783,2.9699,2.9741,2.97,2.97,2.9681,2.9682,2.9557,2.9672,2.9672,2.9672,2.9673,0,2.9879,2.9837,2.9854,2.9827,2.9781,2.9798,2.9752,2.9751,2.9743,2.9715,2.974,2.9713,2.9728,2.9702,2.971,2.9664,2.9658,2.9659,2.9662,2.9657,2.9657,2.9648,2.9654,2.9669,2.967,2.967,2.9671,0,2.9781,2.9791,2.9745,2.9742,2.9741,2.9707,2.9704,2.9678,2.9682,2.9647,2.9639,2.9645,2.9616,2.9624,2.9592,2.9597,2.954,2.9549,2.9544,2.9546,2.9505,2.9508,2.937,2.9352,2.9478,2.9477,2.9476,0,2.972,2.9689,2.9684,2.9668,2.9662,2.9635,2.9621,2.9636,2.9619,2.9604,2.9579,2.9552,2.9532,2.9483,2.9484,2.9459,2.9468,2.9421,2.9465,2.9461,2.9467,2.9469,2.9466,2.9413,2.9411,2.941,2.9409,0,2.9611,2.9617,2.9596,2.9575,2.9557,2.9541,2.9528,2.9513,2.9527,2.9507,2.9478,2.9462,2.9429,2.9402,2.9379,2.9374,2.9393,2.9396,2.9385,2.938,2.9378,2.9378,2.952,2.9399,2.94,2.94,2.9401,2.9401,2.953,2.9504,2.9496,2.9471,2.9462,2.9449,2.9425,2.9426,2.9402,2.9378,2.9388,2.9354,2.9343,2.9315,2.9307,2.928,2.9298,2.9282,2.9278,2.9274,2.9269,2.9382,2.9276,2.9276,2.9276,2.9277,2.9277,0,2.9421,2.9418,2.9395,2.9376,2.9355,2.9377,2.9363,2.9344,2.9315,2.9303,2.9282,2.9249,2.9222,2.9221,2.9196,2.9174,2.9183,2.9167,2.9169,2.9167,2.9254,2.9266,2.9161,2.9161,2.9161,2.9161,2.9161,2.9161,2.9363,2.932,2.9325,2.9278,2.9274,2.9242,2.9233,2.922,2.9211,2.9173,2.9151,2.9151,2.9143,2.9117,2.9094,2.9094,2.9083,2.9065,2.9068,2.9149,2.9161,2.9172,2.9183,2.9062,2.9062,2.8983,2.8982,2.8982]}]]